Location: Banksville Park
(38.5557°N, 75.1182°W)
Time: 06:34:07
(UTC+00:00)

ERBS - Pass Details

Date: 19 September 2020
Orbit: 413 x 418 km, 57.0° (Epoch: 18 October)

Event Time Altitude Azimuth Distance (km) Brightness Sun altitude
Exits shadow 09:21:17 45° 286° (WNW) 581 2.5 -17.1°
Maximum altitude 09:21:44 49° 315° (NW) 547 2.6 -17.1°
Drops below altitude 10° 09:25:01 10° 32° (NNE) 1,504 5.7 -16.4°
Sets 09:27:09 0° 38° (NE) 2,372 7.0 -16.0°
